Presure
238 202 138 104 195 192 184 157 106 174 106 108 145 131 119 146 95 124 168 161 108 89 87 90 91 79 94 88 90 94 95 104 94 98 90 89 92 102 100 100 99 106 111
229 222 211 184 134 152 182 178 108 116 176 124 124 161 163 100 144 95 160 158 131 169 91 92 92 163 98 145 97 161 90 89 95 94 132 93 96 132 128 110 86 94 99
217 210 72 170 171 163 163 165 184 180 138 92 97 109 170 138 150 88 97 158 186 171 167 180 123 114 129 85 93 99 93 91 95 97 102 94 102 141 96 105 140 101 89
215 200 184 172 169 177 171 130 179 177 175 183 172 105 168 182 137 129 117 86 134 79 121 173 187 114 124 142 155 143 133 112 95 92 92 114 96 149 143 139 103 93 93
193 193 176 191 198 187 105 149 196 195 167 176 107 182 187 164 177 195 176 191 174 169 142 147 147 76 85 141 144 155 130 124 128 122 104 105 127 102 111 131 105 116 124
189 195 177 173 64 178 194 183 86 174 61 73 72 190 181 185 182 177 82 194 180 124 83 82 95 88 91 139 98 85 112 135 97 133 105 175 178 177 137 108 134 94 101
199 185 177 177 184 193 176 173 76 76 182 104 177 95 170 108 159 180 180 116 193 149 160 168 180 173 171 93 84 84 86 88 87 88 109 135 106 92 91 152 154 95 94
214 189 184 180 181 179 177 127 172 173 174 175 181 173 135 180 175 168 94 174 77 130 173 165 160 162 153 117 122 101 145 140 131 129 120 128 120 93 87 92 93 93 130
211 185 187 192 192 187 181 173 184 177 175 174 174 174 181 178 172 171 178 169 102 97 101 157 115 169 147 138 118 161 119 153 112 154 148 133 134 170 153 135 140 96 115
200 187 197 191 170 202 179 193 169 184 179 178 176 183 174 176 177 176 102 105 104 106 164 162 162 91 157 170 178 130 108 123 114 122 132 132 104 108 110 115 121 144 136
201 196 177 200 178 190 178 179 173 178 177 181 184 167 174 180 177 176 164 168 167 161 173 163 178 178 177 158 144 178 186 177 142 171 189 193 110 175 168 139 153 170 132
196 194 202 178 187 170 176 191 167 182 182 192 182 175 177 169 163 162 180 158 158 155 154 166 180 179 191 192 196 190 154 182 187 205 166 150 181 109 183 183 184 176 89
197 171 200 195 193 210 163 173 196 178 187 183 184 169 165 176 182 167 164 160 162 170 170 172 195 177 183 172 198 168 163 177 163 161 161 182 200 199 198 194 179 179 178
185 158 186 158 187 177 185 178 203 190 162 167 160 171 174 173 165 168 208 212 193 188 177 185 214 208 205 202 205 214 215 215 215 219 197 220 178 175 168 181 191 189 179
190 179 181 184 181 181 175 179 178 202 171 219 190 187 191 198 190 178 176 203 202 194 194 185 184 182 189 172 193 180 184 182 181 184 187 195 200 202 205 209 214 201 174
201 199 198 201 199 197 189 186 165 158 160 163 190 180 204 179 179 179 183 183 182 182 192 199 189 182 181 199 185 183 179 181 206 208 192 187 197 192 189 187 207 206 203
178 180 178 174 173 173 174 173 175 175 176 175 173 172 173 176 183 188 165 168 173 178 181 180 184 180 189 188 170 160 167 165 207 153 210 189 163 191 170 168 218 207 214
172 179 181 169 155 175 158 161 171 171 160 153 159 160 166 171 176 166 158 172 173 151 151 169 161 168 171 167 170 170 164 159 192 154 155 185 194 192 182 205 180 191 212
172 166 160 161 165 162 162 157 164 171 171 161 169 162 152 148 147 144 148 181 182 177 174 158 157 144 155 168 166 170 181 171 176 185 170 167 180 175 171 174 176 178 181
158 171 170 158 159 167 173 172 156 155 153 150 153 162 164 173 180 176 173 169 167 167 171 168 167 173 157 166 171 170 173 174 171 172 180 183 182 182 183 185 182 181 194
171 172 173 175 128 174 163 153 154 162 153 169 170 166 157 150 158 163 167 167 168 169 172 172 162 170 168 178 162 170 169 168 170 169 171 177 172 182 173 177 176 185 178
152 166 159 158 158 146 160 161 164 167 168 160 151 155 168 169 167 166 167 167 168 167 160 161 173 172 169 163 179 157 161 169 175 173 165 165 174 189 187 176 174 176 202
165 158 167 169 156 160 166 166 165 164 148 151 160 164 163 150 158 161 157 161 161 157 162 161 160 169 166 169 175 178 163 165 165 160 179 181 178 177 182 194 195 200 199
168 170 158 161 163 166 167 167 166 163 155 161 140 162 160 153 145 152 165 165 157 156 161 167 168 161 175 176 172 174 178 166 176 179 181 176 151 194 185 168 186 204 203
159 161 166 153 160 165 159 130 167 168 134 150 153 156 154 141 141 150 160 160 160 160 163 164 167 178 172 172 178 159 170 173 180 178 170 187 177 178 189 199 205 197 227
156 157 159 159 164 159 136 160 149 148 159 162 162 157 157 144 150 147 163 169 162 167 168 177 174 173 173 163 168 176 177 176 173 181 171 172 177 177 168 206 208 238 233
Wind_Speed
20 27 37 34 39 39 39 40 29 37 31 28 40 38 35 40 31 37 34 36 41 34 32 36 34 17 37 28 29 33 34 35 32 35 32 31 31 35 35 33 34 37 38
19 28 34 41 34 39 45 44 41 46 46 39 41 51 49 25 36 35 40 37 49 38 34 39 39 39 46 42 38 43 31 30 37 37 47 35 37 47 42 42 29 34 34
23 27 23 37 45 44 45 46 46 48 57 34 40 33 49 43 38 36 26 44 43 41 38 45 46 47 49 23 41 48 39 34 39 39 43 39 42 46 40 43 48 40 31
26 26 37 47 51 48 51 35 51 53 54 48 48 41 46 49 46 36 33 37 36 27 38 47 46 35 52 50 51 53 55 47 42 39 39 45 40 53 51 54 44 38 39
29 37 47 38 47 50 40 45 41 51 54 49 43 46 46 43 47 48 44 48 45 44 49 40 40 30 38 46 55 52 59 59 60 62 45 43 53 46 49 55 45 49 56
42 57 53 52 22 50 51 49 46 51 19 26 28 48 48 49 47 45 38 47 49 57 41 40 40 41 42 58 41 42 51 62 46 62 46 47 47 49 60 46 62 44 45
49 45 47 48 45 51 48 46 37 35 46 37 46 52 46 41 44 47 45 48 49 51 46 45 45 46 48 50 46 47 47 48 46 46 54 64 57 46 46 49 53 48 46
59 53 50 49 49 49 47 43 45 46 43 47 47 50 48 48 47 44 52 45 44 48 50 48 50 50 59 62 62 59 60 64 67 64 60 65 64 53 48 53 54 51 53
56 43 43 52 53 48 47 42 55 49 48 50 53 51 56 57 48 46 50 46 58 59 55 50 57 54 60 64 64 60 64 61 62 65 67 71 71 65 69 70 69 58 59
49 36 55 49 39 61 40 55 42 59 53 54 54 58 49 52 56 55 65 63 64 64 51 52 57 58 63 61 60 70 65 70 67 71 75 75 64 64 65 66 70 69 75
40 43 38 57 41 51 43 47 43 48 46 56 64 44 45 53 47 50 49 49 49 54 60 59 68 68 66 64 65 66 66 66 72 67 67 65 70 70 73 71 79 72 76
27 33 41 37 52 42 41 60 48 55 49 63 56 47 50 47 49 50 61 55 58 60 61 64 74 70 76 69 72 70 65 66 66 67 69 70 71 73 72 74 73 75 61
35 31 39 44 46 54 41 41 64 42 51 47 50 46 49 55 60 55 55 56 57 61 65 65 74 65 68 64 68 67 66 70 69 69 70 72 74 74 75 76 78 75 76
34 31 36 33 41 42 42 49 66 58 46 45 45 50 56 55 53 54 67 64 77 72 66 67 55 54 54 54 56 56 59 61 62 63 67 68 74 75 75 76 78 80 81
34 35 35 38 39 42 42 43 44 50 45 53 58 54 53 53 52 56 58 58 60 57 53 55 54 57 55 63 53 65 62 64 67 67 68 68 68 70 74 75 75 79 80
31 30 32 35 37 40 42 44 43 45 45 47 43 44 42 48 46 47 47 49 51 53 46 41 48 53 55 49 56 60 65 66 58 59 69 73 71 75 77 77 72 75 81
28 28 30 34 35 36 38 40 41 43 43 42 44 45 47 47 42 41 54 53 52 51 50 51 49 50 47 51 65 68 71 72 52 76 53 75 80 76 80 82 64 74 73
34 32 32 33 37 36 40 41 39 40 43 45 46 46 47 48 48 50 51 52 49 59 63 57 62 65 65 69 70 73 76 75 60 80 81 74 69 78 85 73 87 86 77
35 38 38 39 39 40 41 42 43 42 43 45 46 47 49 49 51 54 60 51 50 56 56 64 65 73 73 68 73 72 63 80 75 71 77 82 82 83 84 90 87 91 93
42 43 46 45 45 47 44 43 44 47 49 48 51 53 54 52 50 52 54 58 60 61 60 62 64 63 68 65 68 72 69 68 74 76 75 77 80 84 85 84 88 91 90
48 46 44 43 49 44 48 51 50 52 55 53 52 54 56 55 61 63 62 63 62 62 62 63 70 67 67 64 73 70 75 78 77 81 81 84 88 90 94 95 96 98 102
51 49 51 51 52 44 53 54 56 54 54 55 54 58 58 59 61 62 63 64 64 65 67 67 68 70 73 73 71 81 79 83 81 85 90 93 92 91 97 103 105 109 104
56 57 54 55 56 56 57 57 58 59 54 56 62 63 63 60 64 66 68 69 70 70 72 72 73 75 78 80 79 78 83 85 88 94 92 94 98 105 105 104 108 111 110
59 56 62 61 59 60 60 60 63 65 64 67 55 67 67 66 63 70 73 74 74 75 78 79 80 81 81 85 86 86 86 88 86 82 88 95 106 105 108 118 119 118 124
64 64 67 63 65 67 67 53 66 66 55 65 69 71 71 63 66 75 79 80 80 81 82 83 84 85 84 87 90 94 94 96 95 92 95 101 103 107 113 118 118 131 119
71 71 73 71 70 71 62 72 67 67 70 73 75 75 75 71 79 79 83 83 84 85 84 86 86 86 88 90 93 96 96 95 98 100 101 103 107 117 122 120 119 118 120
Wind_Direction
207 226 246 252 220 231 236 245 243 231 245 246 243 240 251 248 252 248 254 248 244 246 257 257 258 275 259 264 262 257 257 253 256 252 256 255 255 255 253 253 250 259 262
212 195 197 217 237 229 228 234 253 256 233 239 254 244 246 252 254 252 246 254 241 252 250 248 255 234 252 246 257 238 261 263 258 259 243 259 256 248 251 256 260 256 254
196 189 246 212 221 225 226 233 231 237 246 247 236 251 249 246 257 246 258 246 245 255 256 256 246 248 243 266 262 256 263 265 260 261 256 260 258 250 258 257 252 256 264
151 156 203 222 226 222 235 226 230 233 241 236 244 237 248 247 253 259 258 253 254 259 254 251 252 261 240 247 237 240 241 252 264 265 263 252 263 246 245 246 257 264 267
174 170 206 211 198 216 232 238 217 221 244 246 254 239 244 249 253 248 256 249 249 249 244 255 254 262 260 251 238 243 241 245 244 247 257 258 251 262 254 246 258 255 253
189 180 207 219 273 222 196 218 238 239 282 240 239 239 251 249 249 251 256 250 249 243 262 262 260 258 260 238 259 259 252 244 268 244 251 254 256 255 246 261 247 264 260
186 201 213 217 212 202 229 237 257 264 236 258 253 246 253 254 254 252 254 258 250 247 250 252 258 254 252 257 253 255 256 256 258 260 256 250 260 262 265 260 257 263 261
184 195 203 220 216 224 230 244 239 241 243 248 244 250 256 255 253 252 259 252 255 255 253 253 251 252 244 256 252 255 252 257 256 256 252 259 261 258 258 258 260 260 254
186 208 216 211 212 220 227 238 223 237 242 244 250 254 245 251 254 255 258 254 258 258 256 254 255 260 259 256 258 258 259 253 261 251 255 261 263 252 254 263 253 258 256
196 214 211 213 229 216 236 219 242 228 236 242 248 247 254 256 257 257 252 255 255 256 260 256 254 259 250 261 266 255 255 261 262 264 260 260 256 256 256 260 264 261 264
202 209 223 218 228 223 231 236 240 242 248 240 238 246 256 257 261 262 254 255 255 255 262 259 270 267 265 265 255 265 269 268 259 261 266 264 259 257 256 253 255 257 262
220 220 220 229 226 235 239 229 241 239 247 239 246 251 255 254 249 250 262 253 255 257 260 263 267 268 273 272 272 267 266 270 271 268 262 261 263 260 262 259 257 256 256
225 227 229 229 228 232 245 239 235 244 252 252 251 247 249 257 262 255 254 257 259 264 268 270 273 274 275 271 274 268 265 270 266 264 264 270 267 265 265 263 262 259 257
220 245 223 248 235 232 238 245 240 242 253 247 252 254 258 256 257 259 265 265 264 263 271 274 275 274 276 277 276 274 275 275 276 274 269 268 268 266 263 264 263 263 263
224 232 234 233 234 234 240 239 240 242 249 252 251 250 253 256 259 261 266 266 266 265 264 265 267 267 268 271 273 269 269 269 270 270 269 268 267 267 268 267 266 264 262
232 236 241 244 243 241 238 237 252 258 258 256 247 258 260 255 256 255 255 256 257 260 266 274 271 270 270 280 274 275 272 273 273 270 271 270 267 268 266 265 267 265 263
231 229 230 236 238 239 239 241 240 243 244 246 247 249 252 254 256 257 261 264 264 264 264 266 267 271 277 273 272 271 272 273 287 270 285 267 271 268 268 268 282 265 269
240 233 233 242 251 241 250 250 247 249 253 255 256 259 260 260 259 264 266 265 264 266 268 268 269 274 271 272 271 272 275 275 280 273 273 269 280 272 270 279 268 265 279
240 248 252 252 247 252 253 257 256 254 254 259 257 261 264 264 265 263 264 265 266 264 266 272 272 270 270 276 276 278 280 273 275 286 281 275 272 279 276 268 273 268 267
264 243 246 253 253 249 247 249 258 260 263 263 266 264 263 261 261 261 264 266 267 267 267 269 270 273 274 276 274 277 282 284 278 281 289 291 287 284 282 283 277 273 280
245 244 241 241 248 244 251 266 263 257 265 258 259 259 264 270 267 266 267 268 269 270 273 275 269 277 274 285 273 281 279 278 282 281 286 290 283 289 280 280 277 281 272
270 249 262 264 264 272 261 259 258 255 256 261 268 268 265 266 267 269 270 272 274 274 270 271 279 280 279 274 285 272 277 285 285 282 277 277 283 293 288 278 276 273 282
255 265 253 251 272 266 255 256 256 259 270 271 269 267 269 273 274 274 276 277 278 279 280 280 279 284 283 284 285 286 276 281 284 283 294 294 289 288 287 290 288 287 282
255 251 266 263 263 258 259 262 261 263 271 269 267 270 272 276 278 280 278 278 282 283 282 283 284 283 288 290 287 288 289 279 287 288 292 288 282 295 293 284 288 288 283
262 260 254 272 266 261 268 265 262 262 268 275 274 274 276 277 279 282 279 281 281 282 283 283 284 288 286 288 291 282 287 288 291 287 282 296 289 287 291 292 287 284 287
265 265 264 266 261 265 267 267 268 276 269 269 270 274 275 277 281 284 278 279 281 282 283 287 287 287 287 283 287 290 292 290 288 293 286 287 288 289 282 290 284 296 287